Terminal Aerodrome Forecast
Issued by NWS

Home | Current Version | Previous Version | Text Only | Print | Product List | Glossary On
Versions: 1 2 3 4 5 6 7 8 9 10 11 12 13 14 15 16 17 18 19 20 21 22 23 24 25 26 27 28 29 30 31 32 33 34 35 36 37 38 39 40 41 42 43 44 45 46
000
FTUS43 KMKX 230857 AAA
TAFENW
TAF AMD
KENW 230857Z 2309/2406 27005KT P6SM SKC
     FM231600 32010KT P6SM SCT045
      TEMPO 2318/2322 BKN045
     FM232200 02008KT P6SM SCT050
     FM240200 VRB03KT P6SM FEW200=

USA.gov is the U.S. government's official web portal to all federal, state and local government web resources and services.